Location: Le Pont-de-Coulogne
(50.9242°N, 1.8700°E)
Time: 08:15:57
(UTC+00:00)

Meteor 1-10 Rocket - Pass Details

Date: 15 May 2026
Orbit: 834 x 909 km, 81.3° (Epoch: 5 June)

Event Time Altitude Azimuth Distance (km) Brightness Sun altitude
Exits shadow 23:11:30 35° 166° (SSE) 1,416 4.8 -19.5°
Maximum altitude 23:13:58 66° 97° (E) 992 4.4 -19.6°
Drops below altitude 10° 23:19:51 10° 17° (NNE) 2,607 7.7 -19.7°
Sets 23:22:21 0° 15° (NNE) 3,551 8.7 -19.8°
